[[{"header":{"parameterUnit":"m.s-1","parameterCategory":2,"la1":30.2991,"la2":30.254,"lo1":-89.0895,"lo2":-89.0444,"dy":0.0017,"dx":0.0017,"nx":28,"ny":28,"refTime":"2025-01-11T03:00:00:Z","depth":"0","parameterNumber":2,"parameterNumberName":"U-component_of_CURRENTS"},"data":[0,0,0,0,0,0,0,0,0,0,0,0,0,0,0,0,0,0,0,0,0,0,0,0,0,0,0,0,0,0,0,0,0,0,0,0,0,0,0,0,0,0,0,0,0,0,0,0,0,0,0,0,0,0,0,0,0,0,0.3042,0.3043,0,0.3111,0.3111,0.3112,0.3138,0.3138,0.3138,0.3138,0.312,0.3119,0.3119,0,0,0,0,0,0,0,0,0,0,0,0,0,0.2957,0.2958,0.3042,0.3043,0.3045,0.3111,0.3111,0.3112,0.3138,0.3138,0.3138,0.3138,0.312,0.3119,0.3119,0,0,0,0,0,0,0,0,0,0,0,0,0,0.3003,0.2958,0.3042,0.3068,0.3071,0.3111,0.3111,0.3112,0.3138,0.3138,0.3138,0.3138,0.312,0.3119,0.3118,0.311,0,0,0.3116,0.3115,0,0,0,0,0,0,0,0,0.3,0.3006,0.3063,0.3066,0.307,0.3119,0.3075,0.3108,0.3138,0.3109,0.3138,0.3138,0.3113,0.3113,0.3122,0.3109,0.3108,0.3116,0.3115,0.3115,0.3115,0,0,0,0,0,0,0,0.2997,0.3003,0.3066,0.3064,0.3069,0.3084,0.309,0.3082,0.3105,0.3111,0.3114,0.3127,0.3114,0.3123,0.3122,0.3108,0.3116,0.3115,0.3114,0.3114,0.313,0.3131,0,0,0,0,0,0,0.2994,0.3,0.3064,0.3068,0.3039,0.3086,0.3093,0.31,0.3107,0.311,0.3127,0.3128,0.3124,0.3123,0.3121,0.3153,0.3115,0.3114,0.3113,0.3129,0.313,0.3131,0,0,0,0,0,0,0.2992,0.2999,0.3061,0.3039,0.3048,0.3087,0.3096,0.3102,0.3116,0.3121,0.3121,0.3137,0.3124,0.3122,0.3125,0.315,0.3114,0.3113,0.3128,0.313,0.3131,0.3189,0,0,0,0,0,0,0.2989,0.2998,0.3002,0.3038,0.305,0.309,0.3096,0.3103,0.3126,0.3128,0.3129,0.3128,0.3124,0.3127,0.3124,0.3148,0.3112,0.3127,0.3129,0.313,0.3186,0.3192,0.3198,0,0,0,0,0,0.2986,0.299,0.3002,0.301,0.3054,0.3091,0.3098,0.3124,0.3126,0.3136,0.314,0.3128,0.3137,0.3126,0.3124,0.3148,0.3126,0.3128,0.313,0.3183,0.3191,0.3197,0,0,0,0,0,0,0.295,0.2994,0.3008,0.3024,0.3059,0.3097,0.3111,0.3125,0.3137,0.3136,0.3134,0.3133,0.3148,0.3136,0.3124,0.3159,0.3132,0.3133,0.3173,0.318,0.3186,0.3211,0.3111,0,0,0,0,0,0.2946,0.2962,0.3007,0.3019,0.3039,0.3074,0.3092,0.311,0.3129,0.3135,0.3138,0.3142,0.3154,0.3156,0.3158,0.3168,0.3208,0.3184,0.319,0.3195,0.3214,0.3302,0.3318,0.3139,0.3138,0.3138,0,0,0.2934,0.2962,0.297,0.3014,0.3041,0.3075,0.3084,0.3114,0.3143,0.3128,0.3156,0.3157,0.316,0.3183,0.3188,0.3176,0.3268,0.3198,0.3202,0.3219,0.3306,0.3324,0.334,0.314,0.314,0.3139,0,0,0.2924,0.2947,0.2961,0.2998,0.3046,0.3072,0.3082,0.3123,0.3145,0.3167,0.3175,0.3199,0.3196,0.3225,0.3234,0.3271,0.3295,0.3262,0.3315,0.3399,0.3416,0.3431,0.3514,0.3535,0.3267,0.3267,0.3267,0,0.2905,0.294,0.297,0.3003,0.3036,0.3072,0.3101,0.3133,0.3169,0.3192,0.3179,0.3229,0.3226,0.3286,0.3304,0.3288,0.3339,0.3288,0.3411,0.3426,0.344,0.3521,0.3545,0.327,0.327,0.327,0.3269,0,0.2916,0.2952,0.2966,0.3021,0.3053,0.3087,0.314,0.317,0.319,0.3223,0.3277,0.3294,0.3327,0.3334,0.3329,0.3428,0.3434,0.3409,0.3398,0.3462,0.3543,0.3566,0.3275,0.3274,0.3273,0.3272,0,0,0.2853,0.2954,0.2958,0.3002,0.307,0.31,0.315,0.3213,0.3272,0.3294,0.3372,0.3396,0.3414,0.3428,0.3439,0.3515,0.3657,0.351,0.3513,0.3602,0.386,0.3814,0.3835,0.366,0.3664,0.3667,0.388,0,0.2854,0.292,0.2966,0.3033,0.3078,0.3135,0.319,0.3249,0.3305,0.3389,0.3426,0.3501,0.3449,0.3495,0.3553,0.3641,0.372,0.3603,0.3775,0.3781,0.3741,0.386,0.3728,0.3902,0.3903,0.3907,0.391,0,0.2851,0.2902,0.2963,0.3072,0.3095,0.3137,0.3243,0.3303,0.3419,0.347,0.3538,0.3586,0.3695,0.3651,0.382,0.375,0.381,0.387,0.3878,0.3834,0.3779,0.3835,0.3945,0.3831,0.3946,0.3943,0.394,0,0.2804,0.2902,0.2952,0.2988,0.3106,0.3144,0.3205,0.3317,0.3375,0.3547,0.3612,0.3731,0.3808,0.3905,0.3985,0.3933,0.4184,0.4122,0.4137,0.4135,0.4055,0.4038,0.4082,0.4258,0.4258,0.4257,0.4257,0,0.2795,0.2839,0.294,0.2974,0.3032,0.3132,0.3213,0.3302,0.3438,0.3526,0.3649,0.3746,0.388,0.4008,0.4067,0.4181,0.4243,0.4191,0.4203,0.4069,0.4051,0.3971,0.3918,0.4265,0.4263,0.4262,0.4261,0,0.2739,0.2811,0.2871,0.2985,0.3012,0.3054,0.3168,0.3246,0.3396,0.3525,0.3587,0.3787,0.3977,0.4096,0.4298,0.4285,0.4305,0.4429,0.4263,0.425,0.4116,0.407,0.403,0.3906,0.4499,0.4499,0.4499,0,0.272,0.2748,0.2836,0.2862,0.291,0.2983,0.3037,0.3187,0.3274,0.3533,0.3594,0.3835,0.3968,0.4244,0.434,0.4485,0.4325,0.4414,0.4276,0.4132,0.4092,0.3919,0.3804,0.4208,0.4205,0.4204,0.4202,0,0.2674,0.27,0.2745,0.2794,0.2843,0.2884,0.2983,0.303,0.3237,0.3363,0.356,0.3708,0.4002,0.4116,0.4318,0.437,0.4201,0.438,0.4285,0.3929,0.3694,0.357,0.4043,0.4187,0.4189,0.419,0.419,0.4191,0.262,0.2629,0.2688,0.2726,0.2766,0.2794,0.2793,0.2922,0.3023,0.3207,0.3431,0.3616,0.3892,0.4162,0.4185,0.415,0.4106,0.404,0.4024,0.3882,0.3666,0.4105,0.4211,0.4212,0.4214,0.4215,0.4216,0,0.2566,0.2591,0.2624,0.2653,0.2649,0.2702,0.276,0.2753,0.2821,0.3059,0.322,0.3514,0.3678,0.385,0.3953,0.3827,0.3639,0.3718,0.3445,0.3366,0.3829,0.3716,0.3651,0.3651,0.3651,0.3651,0.3651,0.3652,0.2541,0.2556,0.2576,0.2539,0.2543,0.2494,0.249,0.2497,0.2613,0.2766,0.2932,0.3155,0.3498,0.3748,0.3678,0.358,0.3274,0.3157,0.3119,0.3451,0.3478,0.3503,0.3383,0.3249,0.3249,0.2504,0.2499,0.2495]},{"header":{"parameterUnit":"m.s-1","parameterCategory":2,"la1":30.2991,"la2":30.254,"lo1":-89.0895,"lo2":-89.0444,"dy":0.0017,"dx":0.0017,"nx":28,"ny":28,"refTime":"2025-01-11T03:00:00:Z","depth":"0","parameterNumber":3,"parameterNumberName":"V-component_of_CURRENTS"},"data":[0,0,0,0,0,0,0,0,0,0,0,0,0,0,0,0,0,0,0,0,0,0,0,0,0,0,0,0,0,0,0,0,0,0,0,0,0,0,0,0,0,0,0,0,0,0,0,0,0,0,0,0,0,0,0,0,0,0,-0.0209,-0.021,0,-0.0308,-0.0309,-0.0311,-0.0398,-0.0399,-0.04,-0.04,-0.0509,-0.0511,-0.0513,0,0,0,0,0,0,0,0,0,0,0,0,0,-0.017,-0.017,-0.0209,-0.021,-0.0211,-0.0308,-0.0309,-0.0311,-0.0398,-0.0399,-0.04,-0.0401,-0.0508,-0.0511,-0.0513,0,0,0,0,0,0,0,0,0,0,0,0,0,-0.0221,-0.017,-0.0209,-0.0264,-0.027,-0.0307,-0.0309,-0.0311,-0.0398,-0.0399,-0.04,-0.0401,-0.0507,-0.051,-0.0514,-0.0509,0,0,-0.0523,-0.0525,0,0,0,0,0,0,0,0,-0.0218,-0.0223,-0.0255,-0.0261,-0.0267,-0.034,-0.0335,-0.0377,-0.0397,-0.0352,-0.04,-0.0402,-0.0451,-0.0459,-0.0478,-0.0514,-0.0519,-0.0524,-0.0526,-0.0527,-0.0528,0,0,0,0,0,0,0,-0.0215,-0.022,-0.0251,-0.0256,-0.0263,-0.031,-0.0318,-0.0344,-0.0395,-0.0356,-0.0362,-0.0369,-0.0455,-0.0475,-0.0481,-0.0521,-0.0524,-0.0526,-0.0528,-0.053,-0.0557,-0.0556,0,0,0,0,0,0,-0.0192,-0.0216,-0.0247,-0.0253,-0.0243,-0.0309,-0.0318,-0.0317,-0.0395,-0.0407,-0.0368,-0.0372,-0.0468,-0.0477,-0.0485,-0.048,-0.0527,-0.053,-0.0532,-0.0558,-0.0556,-0.0555,0,0,0,0,0,0,-0.0191,-0.0194,-0.0243,-0.0236,-0.0245,-0.0307,-0.0306,-0.0318,-0.0335,-0.0403,-0.0417,-0.0371,-0.047,-0.0481,-0.0502,-0.0485,-0.0531,-0.0534,-0.0559,-0.0557,-0.0556,-0.0471,0,0,0,0,0,0,-0.0189,-0.0192,-0.0185,-0.0234,-0.0244,-0.0248,-0.0305,-0.0319,-0.0336,-0.0344,-0.041,-0.0422,-0.0472,-0.0496,-0.0505,-0.049,-0.0537,-0.0561,-0.0559,-0.0556,-0.0476,-0.0467,-0.0459,0,0,0,0,0,-0.0187,-0.0162,-0.0184,-0.0188,-0.0231,-0.0246,-0.0256,-0.0307,-0.0335,-0.0329,-0.038,-0.042,-0.0488,-0.0498,-0.0508,-0.0494,-0.0562,-0.0559,-0.0557,-0.0479,-0.0469,-0.046,0,0,0,0,0,0,-0.0132,-0.0169,-0.0195,-0.018,-0.0206,-0.026,-0.026,-0.0293,-0.0329,-0.0337,-0.0406,-0.0421,-0.0434,-0.0468,-0.0477,-0.0493,-0.053,-0.0529,-0.0468,-0.0459,-0.045,-0.0437,-0.054,0,0,0,0,0,-0.0117,-0.0114,-0.0153,-0.0142,-0.015,-0.0203,-0.0216,-0.0247,-0.0285,-0.0303,-0.0349,-0.0395,-0.0429,-0.0447,-0.0481,-0.0486,-0.0504,-0.0482,-0.0473,-0.0466,-0.0461,-0.0478,-0.0471,-0.0546,-0.0546,-0.0546,0,0,-0.0093,-0.0112,-0.0112,-0.0131,-0.0159,-0.0156,-0.0214,-0.022,-0.0223,-0.0306,-0.032,-0.0366,-0.0423,-0.0437,-0.0445,-0.0464,-0.0447,-0.0463,-0.0457,-0.0455,-0.0475,-0.0467,-0.0461,-0.0544,-0.0545,-0.0545,0,0,-0.004,-0.0058,-0.0041,-0.0055,-0.0082,-0.0112,-0.0106,-0.015,-0.0174,-0.0189,-0.0253,-0.0285,-0.0331,-0.0376,-0.0403,-0.0365,-0.0403,-0.0371,-0.0322,-0.0339,-0.0333,-0.0328,-0.0312,-0.0306,-0.0368,-0.0368,-0.0368,0,-0.001,0.0003,-0.0035,-0.0021,-0.0026,-0.0084,-0.0063,-0.0091,-0.0136,-0.0146,-0.0177,-0.0251,-0.0304,-0.0329,-0.0327,-0.0348,-0.0351,-0.0357,-0.0328,-0.0324,-0.032,-0.0305,-0.03,-0.0363,-0.0364,-0.0364,-0.0365,0,0.005,0.0059,0.0074,0.0066,0.006,0.0072,0.0031,0.0024,-0.0012,-0.0046,-0.0072,-0.0149,-0.0193,-0.0216,-0.0267,-0.0267,-0.0273,-0.0315,-0.0353,-0.0308,-0.0294,-0.0291,-0.0357,-0.0359,-0.036,-0.0361,0,0,0.0121,0.0116,0.012,0.0128,0.0106,0.0111,0.0115,0.0102,0.0116,0.0055,0.007,-0.0023,-0.0067,-0.0101,-0.0168,-0.0196,-0.0178,-0.0241,-0.0244,-0.0222,-0.0183,-0.0184,-0.0181,-0.0215,-0.0214,-0.0214,-0.0172,0,0.0177,0.0221,0.0201,0.0241,0.026,0.0218,0.0232,0.0212,0.0186,0.0192,0.0103,0.0094,-0.0022,-0.0029,-0.0083,-0.0143,-0.0169,-0.0184,-0.0232,-0.0232,-0.0239,-0.0177,-0.0195,-0.0161,-0.0169,-0.0169,-0.0168,0,0.0239,0.0258,0.0313,0.0327,0.0334,0.0355,0.0371,0.0377,0.036,0.0346,0.0302,0.0243,0.0191,0.0095,-0.0008,-0.0008,-0.0091,-0.0151,-0.0151,-0.0183,-0.0228,-0.0214,-0.0155,-0.0374,-0.0163,-0.0164,-0.0164,0,0.0303,0.0334,0.0381,0.0386,0.04,0.0425,0.0435,0.0431,0.0473,0.0462,0.0514,0.0399,0.0407,0.026,0.0117,0.0065,0.0028,-0.0058,-0.0139,-0.0138,-0.0179,-0.0184,-0.0341,-0.0131,-0.0131,-0.0131,-0.0132,0,0.0367,0.0403,0.042,0.0448,0.0518,0.0503,0.0591,0.0578,0.063,0.0736,0.0609,0.0686,0.0451,0.0393,0.0204,0.0073,0.0095,-0.0109,-0.0128,-0.0146,-0.0148,-0.0364,-0.0486,-0.013,-0.013,-0.0131,-0.0131,0,0.043,0.0437,0.0498,0.0534,0.0553,0.0609,0.071,0.079,0.0815,0.0963,0.0985,0.0938,0.0867,0.0632,0.0444,0.0239,-0.0041,0.0016,0.0028,0.0008,-0.0308,-0.0423,-0.0579,-0.0668,-0.007,-0.007,-0.007,0,0.0466,0.0507,0.0572,0.0634,0.0661,0.0751,0.0838,0.0878,0.1,0.1146,0.1254,0.1222,0.1249,0.0962,0.0575,0.0263,0.0019,0.0032,-0.0103,-0.0308,-0.0451,-0.0546,-0.0618,-0.0108,-0.0108,-0.0108,-0.0108,0,0.055,0.0576,0.0634,0.0765,0.0865,0.0983,0.1122,0.1249,0.1363,0.1502,0.1698,0.1734,0.1452,0.113,0.0669,0.0414,-0.0132,0.002,-0.0208,-0.0499,-0.0597,-0.0696,-0.0133,-0.0109,-0.0109,-0.0109,-0.0109,-0.0109,0.0627,0.0694,0.0797,0.0925,0.1048,0.1243,0.1387,0.1563,0.1789,0.2033,0.2039,0.2123,0.1585,0.0949,0.0601,-0.0124,-0.0125,-0.0365,-0.0481,-0.0553,-0.0674,-0.009,-0.0089,-0.0089,-0.0088,-0.0088,-0.0088,0,0.0747,0.0835,0.0961,0.1136,0.1311,0.1342,0.1607,0.1783,0.2081,0.2244,0.24,0.2149,0.1539,0.0857,-0.0103,-0.0553,-0.0749,-0.0813,-0.0988,-0.1034,-0.0528,-0.0568,-0.0651,-0.0651,-0.065,-0.065,-0.065,-0.065,0.0824,0.0979,0.1049,0.1356,0.1484,0.1743,0.1909,0.2148,0.2312,0.2502,0.2495,0.2462,0.1862,0.0255,-0.0824,-0.1059,-0.1398,-0.1459,-0.1597,-0.1308,-0.1277,-0.1247,-0.1316,-0.1554,-0.1555,-0.207,-0.2075,-0.2079]}],[{"header":{"parameterUnit":"m.s-1","parameterCategory":2,"la1":30.2991,"la2":30.254,"lo1":-89.0895,"lo2":-89.0444,"dy":0.0017,"dx":0.0017,"nx":28,"ny":28,"refTime":"2025-01-11T03:00:00:Z","depth":"2","parameterNumber":2,"parameterNumberName":"U-component_of_CURRENTS"},"data":[0,0,0,0,0,0,0,0,0,0,0,0,0,0,0,0,0,0,0,0,0,0,0,0,0,0,0,0,0,0,0,0,0,0,0,0,0,0,0,0,0,0,0,0,0,0,0,0,0,0,0,0,0,0,0,0,0,0,0.2571,0.2572,0,0.2597,0.2597,0.2598,0.262,0.2621,0.2621,0.2621,0.2652,0.2652,0.2653,0,0,0,0,0,0,0,0,0,0,0,0,0,0.253,0.2531,0.2571,0.2572,0.2572,0.2597,0.2597,0.2598,0.262,0.2621,0.2621,0.2621,0.2652,0.2652,0.2653,0,0,0,0,0,0,0,0,0,0,0,0,0,0.2551,0.2531,0.2571,0.2586,0.2588,0.2597,0.2597,0.2598,0.262,0.2621,0.2621,0.2621,0.2651,0.2652,0.2653,0.265,0,0,0.2656,0.2656,0,0,0,0,0,0,0,0,0.255,0.2553,0.2584,0.2585,0.2587,0.2606,0.2594,0.2616,0.262,0.2608,0.2621,0.2622,0.2637,0.2639,0.2642,0.2651,0.2653,0.2656,0.2656,0.2657,0.2657,0,0,0,0,0,0,0,0.2548,0.2551,0.2581,0.2584,0.2586,0.2588,0.2592,0.2598,0.262,0.2609,0.2611,0.2614,0.2638,0.2642,0.2643,0.2653,0.2656,0.2656,0.2657,0.2657,0.2729,0.2731,0,0,0,0,0,0,0.2546,0.255,0.2581,0.2582,0.2569,0.2588,0.2592,0.2599,0.2619,0.2623,0.2613,0.2615,0.264,0.2642,0.2645,0.2699,0.2657,0.2657,0.2658,0.2728,0.273,0.2731,0,0,0,0,0,0,0.2545,0.2548,0.2579,0.2567,0.2571,0.2589,0.2596,0.26,0.2617,0.2623,0.2626,0.2629,0.264,0.2643,0.2671,0.2698,0.2658,0.2659,0.2726,0.2728,0.273,0.2772,0,0,0,0,0,0,0.2544,0.2548,0.2554,0.2567,0.2571,0.2595,0.2596,0.26,0.2617,0.262,0.2637,0.2639,0.2641,0.267,0.2672,0.2699,0.2659,0.2724,0.2727,0.273,0.2769,0.2775,0.278,0,0,0,0,0,0.2542,0.2538,0.2554,0.2558,0.2578,0.2595,0.2598,0.2612,0.2618,0.2628,0.2646,0.2639,0.2688,0.2672,0.2674,0.2701,0.2723,0.2726,0.273,0.2766,0.2774,0.278,0,0,0,0,0,0,0.25,0.2541,0.2558,0.2561,0.2586,0.26,0.2606,0.2619,0.264,0.2646,0.2653,0.2657,0.2696,0.2691,0.2673,0.2731,0.2707,0.271,0.2734,0.2741,0.2747,0.2767,0.266,0,0,0,0,0,0.2501,0.2526,0.2553,0.2559,0.2572,0.2594,0.2603,0.2618,0.2637,0.2647,0.2662,0.2681,0.2708,0.2718,0.2737,0.276,0.2787,0.2782,0.2788,0.2793,0.2812,0.2868,0.2881,0.2742,0.2742,0.2741,0,0,0.2491,0.2511,0.2528,0.2555,0.2574,0.2599,0.2601,0.2621,0.2649,0.2646,0.2686,0.2703,0.272,0.2757,0.2773,0.2757,0.285,0.2797,0.2801,0.2818,0.2873,0.2886,0.2899,0.2744,0.2743,0.2743,0,0,0.2478,0.25,0.2522,0.2548,0.2583,0.2601,0.2612,0.2642,0.2665,0.2701,0.2716,0.2754,0.2777,0.2806,0.282,0.2869,0.2883,0.2872,0.2914,0.2967,0.298,0.2991,0.3055,0.3071,0.287,0.287,0.287,0,0.2463,0.2494,0.2527,0.255,0.2576,0.2607,0.2634,0.266,0.2698,0.2728,0.2721,0.2799,0.2806,0.2871,0.2891,0.2884,0.292,0.2882,0.2976,0.2987,0.2998,0.3061,0.3078,0.2873,0.2872,0.2872,0.2872,0,0.2475,0.2503,0.2513,0.2569,0.2598,0.2623,0.267,0.2706,0.2736,0.2769,0.2841,0.2863,0.2911,0.292,0.292,0.3002,0.3007,0.2979,0.2957,0.3014,0.3077,0.3095,0.2876,0.2875,0.2874,0.2874,0,0,0.2432,0.2511,0.2514,0.2554,0.2614,0.264,0.2695,0.276,0.2814,0.2853,0.2925,0.2972,0.2994,0.3013,0.3024,0.3072,0.3173,0.3061,0.3062,0.3124,0.3313,0.3241,0.3253,0.3161,0.3164,0.3167,0.3331,0,0.2434,0.2482,0.2526,0.2585,0.262,0.268,0.2733,0.2798,0.2857,0.2932,0.298,0.3052,0.3026,0.3065,0.3105,0.316,0.322,0.3133,0.3249,0.3253,0.3182,0.3271,0.3014,0.3132,0.3348,0.3351,0.3353,0,0.2429,0.2468,0.252,0.2617,0.2639,0.2681,0.2789,0.2846,0.2955,0.3006,0.3081,0.3125,0.3215,0.3179,0.3305,0.3252,0.3294,0.333,0.3336,0.3268,0.3214,0.3108,0.3156,0.3382,0.338,0.3378,0.3376,0,0.2389,0.2466,0.2511,0.2541,0.2646,0.2693,0.2758,0.2865,0.2931,0.3069,0.3136,0.323,0.3299,0.3361,0.342,0.3379,0.3559,0.3503,0.3488,0.3484,0.3288,0.3261,0.3609,0.3609,0.3609,0.3608,0.3608,0,0.2375,0.2414,0.2497,0.2529,0.2589,0.2681,0.277,0.2851,0.298,0.3069,0.3173,0.3258,0.335,0.3447,0.3478,0.3544,0.3606,0.3531,0.3529,0.3296,0.3269,0.3491,0.3475,0.3614,0.3613,0.3612,0.3611,0,0.2324,0.2384,0.2436,0.254,0.2571,0.2618,0.2756,0.2827,0.2967,0.3091,0.3145,0.3309,0.3434,0.352,0.3645,0.3622,0.3691,0.37,0.3428,0.339,0.357,0.3555,0.3707,0.3706,0.3705,0.3704,0.3704,0,0.2306,0.2322,0.2409,0.244,0.2489,0.2574,0.2632,0.2787,0.2859,0.3108,0.3151,0.3345,0.3435,0.3601,0.3611,0.368,0.3717,0.3474,0.3336,0.3601,0.3585,0.357,0.3556,0.3108,0.3102,0.3098,0.3094,0,0.2258,0.228,0.2325,0.2382,0.2443,0.2505,0.2602,0.2651,0.2847,0.296,0.3125,0.3241,0.3415,0.3362,0.3459,0.3452,0.3433,0.3386,0.3757,0.3109,0.3045,0.3026,0.303,0.3055,0.3059,0.3062,0.3064,0.3065,0.2212,0.2223,0.2281,0.2325,0.2385,0.2433,0.2458,0.2559,0.2661,0.2798,0.297,0.3052,0.3136,0.3134,0.3087,0.3058,0.3273,0.3132,0.3142,0.3158,0.3045,0.2981,0.2961,0.2964,0.2967,0.2969,0.2971,0,0.2167,0.2197,0.2229,0.2283,0.23,0.2378,0.243,0.2421,0.2476,0.2615,0.2719,0.2582,0.2594,0.2671,0.2582,0.2622,0.2563,0.2512,0.2399,0.2443,0.2482,0.2329,0.2057,0.2054,0.2051,0.2048,0,0,0.216,0.2175,0.2186,0.2185,0.223,0.2226,0.224,0.2212,0.2247,0.2247,0.2264,0.2465,0.2605,0.2274,0.2269,0.2143,0.2262,0.2069,0.2814,0.2727,0.2759,0.2869,0.2689,0,0,0,0,0]},{"header":{"parameterUnit":"m.s-1","parameterCategory":2,"la1":30.2991,"la2":30.254,"lo1":-89.0895,"lo2":-89.0444,"dy":0.0017,"dx":0.0017,"nx":28,"ny":28,"refTime":"2025-01-11T03:00:00:Z","depth":"2","parameterNumber":3,"parameterNumberName":"V-component_of_CURRENTS"},"data":[0,0,0,0,0,0,0,0,0,0,0,0,0,0,0,0,0,0,0,0,0,0,0,0,0,0,0,0,0,0,0,0,0,0,0,0,0,0,0,0,0,0,0,0,0,0,0,0,0,0,0,0,0,0,0,0,0,0,-0.0031,-0.0031,0,-0.0098,-0.0099,-0.0099,-0.0143,-0.0144,-0.0144,-0.0144,-0.0247,-0.0249,-0.0252,0,0,0,0,0,0,0,0,0,0,0,0,0,0.0007,0.0007,-0.0031,-0.0031,-0.0032,-0.0098,-0.0099,-0.01,-0.0143,-0.0144,-0.0144,-0.0144,-0.0246,-0.0249,-0.0252,0,0,0,0,0,0,0,0,0,0,0,0,0,-0.003,0.0007,-0.003,-0.0061,-0.0064,-0.0097,-0.0099,-0.01,-0.0143,-0.0144,-0.0144,-0.0144,-0.0245,-0.0249,-0.0253,-0.0271,0,0,-0.0264,-0.0266,0,0,0,0,0,0,0,0,-0.0028,-0.0032,-0.0056,-0.0059,-0.0063,-0.0111,-0.0123,-0.0159,-0.0143,-0.0115,-0.0144,-0.0144,-0.0204,-0.0211,-0.0224,-0.0276,-0.028,-0.0265,-0.0267,-0.0269,-0.027,0,0,0,0,0,0,0,-0.0025,-0.0029,-0.0058,-0.0056,-0.0061,-0.0089,-0.0094,-0.013,-0.0159,-0.0117,-0.012,-0.0126,-0.0206,-0.0221,-0.0227,-0.0282,-0.0265,-0.0268,-0.027,-0.0272,-0.0355,-0.0355,0,0,0,0,0,0,-0.0012,-0.0027,-0.0056,-0.006,-0.0044,-0.0089,-0.0095,-0.0096,-0.0158,-0.0166,-0.0125,-0.0127,-0.0214,-0.0223,-0.0231,-0.0244,-0.0269,-0.0272,-0.0275,-0.0355,-0.0355,-0.0355,0,0,0,0,0,0,-0.001,-0.0013,-0.0054,-0.0044,-0.0051,-0.0089,-0.0091,-0.0098,-0.0111,-0.0163,-0.0173,-0.0131,-0.0214,-0.0226,-0.026,-0.0249,-0.0274,-0.0278,-0.0355,-0.0355,-0.0355,-0.0278,0,0,0,0,0,0,-0.0009,-0.0012,-0.0009,-0.0043,-0.0051,-0.0066,-0.009,-0.0099,-0.0114,-0.0117,-0.0172,-0.0182,-0.0215,-0.0254,-0.0264,-0.0255,-0.0281,-0.0355,-0.0355,-0.0355,-0.0281,-0.0275,-0.0271,0,0,0,0,0,-0.0007,0.0004,-0.0008,-0.0012,-0.0045,-0.0065,-0.0072,-0.0101,-0.0114,-0.0115,-0.0154,-0.018,-0.026,-0.0257,-0.0269,-0.026,-0.0355,-0.0355,-0.0355,-0.0283,-0.0276,-0.0271,0,0,0,0,0,0,0.0026,-0.0001,-0.0014,-0.0011,-0.0034,-0.0072,-0.0075,-0.0096,-0.0128,-0.0131,-0.0182,-0.0194,-0.022,-0.0253,-0.0249,-0.0285,-0.0311,-0.0313,-0.0252,-0.0246,-0.0241,-0.0219,-0.0284,0,0,0,0,0,0.0035,0.0033,0.0003,0.0005,-0.0003,-0.0039,-0.0051,-0.0069,-0.0101,-0.0115,-0.0154,-0.0194,-0.0229,-0.0247,-0.0284,-0.0304,-0.0334,-0.0306,-0.0301,-0.0296,-0.0286,-0.0324,-0.0321,-0.0354,-0.0354,-0.0354,0,0,0.0046,0.0033,0.0031,0.0011,-0.0008,-0.0008,-0.0047,-0.0057,-0.0057,-0.0122,-0.0135,-0.018,-0.0231,-0.0253,-0.0267,-0.0278,-0.0303,-0.0296,-0.0291,-0.0284,-0.0323,-0.032,-0.0317,-0.0354,-0.0354,-0.0354,0,0,0.0076,0.006,0.007,0.0058,0.0036,0.0016,0.0017,-0.0018,-0.0034,-0.0057,-0.01,-0.0135,-0.019,-0.0219,-0.0243,-0.0233,-0.0277,-0.0247,-0.02,-0.0237,-0.0234,-0.0232,-0.0263,-0.0264,-0.0242,-0.0241,-0.0241,0,0.009,0.0104,0.007,0.008,0.008,0.0033,0.0051,0.0027,-0.0015,-0.0022,-0.005,-0.0126,-0.0171,-0.0193,-0.0191,-0.022,-0.0248,-0.0216,-0.0229,-0.0227,-0.0227,-0.0259,-0.0261,-0.0238,-0.0238,-0.0238,-0.0239,0,0.0129,0.014,0.0147,0.0146,0.014,0.0146,0.0116,0.0105,0.0076,0.0049,0.0016,-0.0052,-0.0092,-0.0116,-0.0153,-0.0166,-0.019,-0.0218,-0.0238,-0.0218,-0.0254,-0.0258,-0.0232,-0.0234,-0.0235,-0.0236,0,0,0.0163,0.0173,0.0176,0.0194,0.0179,0.0182,0.0184,0.0174,0.0183,0.0123,0.0127,0.0051,0.0011,-0.0018,-0.0072,-0.0109,-0.0132,-0.0155,-0.0158,-0.0174,-0.0209,-0.0236,-0.0243,-0.0163,-0.0163,-0.0164,-0.0234,0,0.0205,0.025,0.0238,0.0281,0.0304,0.0272,0.0283,0.0266,0.0236,0.0225,0.0149,0.0124,0.005,0.0033,-0.0015,-0.0102,-0.014,-0.011,-0.0236,-0.0239,-0.0257,-0.0248,-0.0215,-0.0276,-0.0238,-0.0239,-0.024,0,0.025,0.0278,0.033,0.0364,0.0371,0.0384,0.04,0.0402,0.037,0.0349,0.0303,0.0239,0.0177,0.011,-0.0023,-0.0001,-0.0094,-0.0169,-0.0174,-0.0227,-0.0273,-0.0293,-0.0285,-0.0247,-0.0246,-0.0246,-0.0245,0,0.0303,0.0344,0.0393,0.0402,0.0426,0.0443,0.0453,0.0439,0.0464,0.0426,0.0437,0.0337,0.0302,0.0169,0.0009,-0.0006,-0.0139,-0.018,-0.0292,-0.0296,-0.0306,-0.0309,-0.0271,-0.0271,-0.0271,-0.0271,-0.027,0,0.0358,0.0397,0.0422,0.0449,0.0515,0.0505,0.0564,0.0556,0.0568,0.0615,0.0507,0.0513,0.0314,0.021,0.005,-0.0126,-0.0109,-0.0279,-0.0315,-0.0279,-0.0279,-0.0286,-0.0287,-0.0273,-0.0273,-0.0272,-0.0272,0,0.0407,0.0421,0.0482,0.0522,0.0542,0.0587,0.0652,0.0695,0.0691,0.075,0.0747,0.0651,0.0507,0.0303,0.009,-0.0059,-0.0235,-0.0303,-0.0246,-0.0274,-0.038,-0.0376,-0.0436,-0.0438,-0.0439,-0.044,-0.0441,0,0.0435,0.047,0.054,0.0586,0.0606,0.0674,0.0729,0.0755,0.0806,0.084,0.0872,0.0759,0.0686,0.0359,0.0069,-0.0212,-0.0246,-0.036,-0.0392,-0.0368,-0.0396,-0.039,-0.0385,-0.0376,-0.0376,-0.0376,-0.0376,0,0.0486,0.0506,0.0557,0.0658,0.0724,0.0813,0.0886,0.0953,0.0997,0.1038,0.1063,0.1011,0.0709,0.0418,0.0037,-0.0151,-0.0317,-0.0375,-0.036,-0.0339,-0.0316,-0.0342,-0.0338,-0.0378,-0.0378,-0.0378,-0.0378,-0.0378,0.0518,0.0566,0.0636,0.0731,0.0818,0.0929,0.1001,0.1087,0.1182,0.1248,0.1198,0.1132,0.0814,0.0316,-0.0008,-0.0341,-0.0341,-0.0453,-0.0449,-0.0446,-0.0426,-0.0408,-0.0483,-0.0483,-0.0484,-0.0484,-0.0484,0,0.0553,0.0612,0.0705,0.0812,0.0912,0.0964,0.1091,0.1154,0.1259,0.1339,0.1341,0.1051,0.0734,0.0383,-0.0112,-0.0418,-0.0433,-0.0505,-0.0453,-0.0449,-0.0446,-0.0424,-0.0481,-0.0482,-0.0483,-0.0483,0,0,0.0572,0.0657,0.0708,0.0865,0.0956,0.1079,0.1158,0.1247,0.1314,0.1374,0.1359,0.1277,0.0853,0.05,0.0081,-0.0193,-0.0247,-0.0247,-0.0219,-0.0104,-0.0097,-0.0388,-0.0347,0,0,0,0,0]}],[{"header":{"parameterUnit":"m.s-1","parameterCategory":2,"la1":30.2991,"la2":30.254,"lo1":-89.0895,"lo2":-89.0444,"dy":0.0017,"dx":0.0017,"nx":28,"ny":28,"refTime":"2025-01-11T03:00:00:Z","depth":"4","parameterNumber":2,"parameterNumberName":"U-component_of_CURRENTS"},"data":[0,0,0,0,0,0,0,0,0,0,0,0,0,0,0,0,0,0,0,0,0,0,0,0,0,0,0,0,0,0,0,0,0,0,0,0,0,0,0,0,0,0,0,0,0,0,0,0,0,0,0,0,0,0,0,0,0,0,0.1599,0.16,0,0.1679,0.168,0.1681,0.1738,0.1739,0.174,0.174,0.1844,0.1847,0.1849,0,0,0,0,0,0,0,0,0,0,0,0,0,0.1484,0.1486,0.1599,0.16,0.1601,0.1679,0.168,0.1681,0.1738,0.1739,0.174,0.174,0.1844,0.1846,0.1849,0,0,0,0,0,0,0,0,0,0,0,0,0,0.1544,0.1487,0.1599,0.1641,0.1646,0.1679,0.168,0.1681,0.1738,0.1739,0.174,0.1741,0.1843,0.1846,0.1849,0.1849,0,0,0.1859,0.186,0,0,0,0,0,0,0,0,0.1541,0.1548,0.1633,0.1638,0.1643,0.1702,0.1678,0.1739,0.1738,0.17,0.174,0.1741,0.18,0.1806,0.1816,0.1854,0.1858,0.1859,0.1861,0.1863,0.1864,0,0,0,0,0,0,0,0.1537,0.1545,0.1628,0.1635,0.1641,0.1652,0.1662,0.169,0.1742,0.1704,0.1709,0.1721,0.1802,0.1813,0.1819,0.186,0.1859,0.1862,0.1864,0.1865,0.201,0.2012,0,0,0,0,0,0,0.1531,0.1541,0.1626,0.1631,0.1596,0.1654,0.1664,0.168,0.1742,0.1752,0.172,0.1723,0.1807,0.1815,0.1823,0.1923,0.1863,0.1866,0.1868,0.2008,0.2011,0.2013,0,0,0,0,0,0,0.1528,0.1538,0.1623,0.1589,0.1601,0.1655,0.1672,0.1681,0.1728,0.1754,0.1765,0.1762,0.1808,0.1818,0.1884,0.1924,0.1867,0.187,0.2006,0.2009,0.2012,0.2062,0,0,0,0,0,0,0.1524,0.1536,0.1562,0.1589,0.1603,0.1668,0.1672,0.1682,0.1733,0.1739,0.1793,0.1802,0.1809,0.1879,0.1887,0.1928,0.1873,0.2004,0.2008,0.2011,0.2058,0.2067,0.2074,0,0,0,0,0,0.152,0.1544,0.1563,0.1575,0.1632,0.167,0.1679,0.1717,0.1734,0.1762,0.1802,0.1802,0.1907,0.1883,0.1892,0.1935,0.2002,0.2006,0.2011,0.2055,0.2065,0.2074,0,0,0,0,0,0,0.1508,0.1554,0.1575,0.1613,0.1652,0.1681,0.1715,0.1737,0.1789,0.1807,0.1826,0.1838,0.1911,0.1916,0.1889,0.1988,0.1955,0.1961,0.1986,0.1995,0.2003,0.1996,0.1875,0,0,0,0,0,0.1517,0.1552,0.1591,0.1627,0.165,0.1689,0.1716,0.1744,0.1784,0.1809,0.1847,0.1889,0.1928,0.1958,0.1992,0.2045,0.2052,0.2079,0.2086,0.2093,0.2095,0.2142,0.2154,0.2027,0.2027,0.2027,0,0,0.1519,0.1553,0.1572,0.1628,0.1662,0.1699,0.1709,0.1762,0.1799,0.1812,0.1888,0.1922,0.195,0.2012,0.2045,0.2026,0.2136,0.2098,0.2103,0.2102,0.2148,0.216,0.2171,0.203,0.2029,0.2029,0,0,0.1532,0.1577,0.1608,0.1644,0.1707,0.1731,0.1754,0.1809,0.1847,0.1914,0.1935,0.1994,0.2056,0.2083,0.2101,0.2172,0.2176,0.2192,0.2226,0.2273,0.2283,0.2292,0.2325,0.2337,0.2194,0.2194,0.2194,0,0.1539,0.158,0.1623,0.1661,0.1696,0.1749,0.1786,0.1828,0.19,0.1937,0.195,0.206,0.2085,0.2151,0.2178,0.2189,0.2214,0.2186,0.2282,0.2291,0.23,0.2331,0.2343,0.2197,0.2197,0.2196,0.2196,0,0.1563,0.1609,0.1633,0.1699,0.1742,0.1787,0.1844,0.1904,0.1957,0.1997,0.2093,0.2133,0.2198,0.2218,0.222,0.2301,0.2298,0.2286,0.2254,0.2315,0.2344,0.2356,0.2201,0.22,0.2199,0.2199,0,0,0.1539,0.1632,0.1643,0.1681,0.1769,0.1801,0.1878,0.1953,0.2015,0.2088,0.2165,0.2234,0.2271,0.2294,0.2317,0.2353,0.2436,0.2352,0.2353,0.2376,0.2542,0.2389,0.2387,0.2448,0.2451,0.2452,0.254,0,0.1549,0.1616,0.1664,0.1734,0.1773,0.1848,0.1913,0.1993,0.207,0.216,0.2217,0.2304,0.2296,0.2349,0.2385,0.2433,0.247,0.2413,0.2486,0.2488,0.2337,0.2396,0.246,0.2548,0.2551,0.2553,0.2554,0,0.1549,0.1599,0.1664,0.176,0.1787,0.1841,0.1962,0.2031,0.2157,0.2222,0.2313,0.237,0.2458,0.2438,0.2538,0.2509,0.2532,0.2551,0.2554,0.2398,0.2355,0.2474,0.2576,0.2574,0.2572,0.2571,0.257,0,0.1496,0.1594,0.1648,0.1681,0.1797,0.1853,0.1929,0.2056,0.2132,0.228,0.2356,0.2455,0.2534,0.2577,0.2624,0.2602,0.2716,0.2687,0.2565,0.2555,0.2644,0.2633,0.2748,0.2748,0.2747,0.2747,0.2747,0,0.1469,0.1514,0.1635,0.1662,0.1743,0.184,0.1943,0.2038,0.2182,0.2268,0.2394,0.2467,0.2578,0.2652,0.2664,0.2649,0.2753,0.2577,0.2568,0.2664,0.2655,0.2652,0.264,0.275,0.275,0.2749,0.2748,0,0.1394,0.1472,0.154,0.1671,0.1718,0.1781,0.1943,0.2016,0.2172,0.2292,0.2349,0.2515,0.2607,0.2686,0.277,0.2694,0.2699,0.2666,0.2776,0.2771,0.2498,0.2488,0.2535,0.2531,0.2527,0.2523,0.2521,0,0.1356,0.1386,0.1527,0.1574,0.1638,0.1749,0.1824,0.1991,0.2069,0.2288,0.233,0.2493,0.2575,0.2576,0.2661,0.2681,0.2646,0.2631,0.2542,0.2491,0.2478,0.2474,0.2469,0.2514,0.2513,0.2512,0.2511,0,0.1285,0.1349,0.1404,0.1503,0.1586,0.1669,0.1792,0.1833,0.202,0.2175,0.2261,0.2321,0.2421,0.2477,0.252,0.2521,0.2628,0.2589,0.2596,0.2512,0.2466,0.2456,0.2456,0.2497,0.2499,0.2501,0.2502,0,0.1233,0.1256,0.1343,0.1417,0.1516,0.157,0.1642,0.1734,0.183,0.2063,0.2078,0.2245,0.239,0.2395,0.2427,0.2428,0.2385,0.2295,0.2316,0.2332,0.2223,0.2132,0.2059,0,0,0,0,0,0.1176,0.1194,0.1255,0.1327,0.1418,0.1479,0.1615,0.1691,0.1858,0.1867,0.1971,0.205,0.2119,0.2206,0.2166,0.2337,0.2393,0.228,0.2298,0.2421,0.2437,0.2327,0,0,0,0,0,0,0.1138,0.1187,0.1216,0.1239,0.1271,0.136,0.144,0.1551,0.1567,0.1741,0.1792,0.1923,0.2024,0.212,0.2126,0.2151,0.212,0.2383,0.2378,0.2412,0.2427,0.244,0.2331,0,0,0,0,0]},{"header":{"parameterUnit":"m.s-1","parameterCategory":2,"la1":30.2991,"la2":30.254,"lo1":-89.0895,"lo2":-89.0444,"dy":0.0017,"dx":0.0017,"nx":28,"ny":28,"refTime":"2025-01-11T03:00:00:Z","depth":"4","parameterNumber":3,"parameterNumberName":"V-component_of_CURRENTS"},"data":[0,0,0,0,0,0,0,0,0,0,0,0,0,0,0,0,0,0,0,0,0,0,0,0,0,0,0,0,0,0,0,0,0,0,0,0,0,0,0,0,0,0,0,0,0,0,0,0,0,0,0,0,0,0,0,0,0,0,0.0058,0.0058,0,0.0008,0.0008,0.0007,-0.0015,-0.0015,-0.0015,-0.0015,-0.0094,-0.0096,-0.0098,0,0,0,0,0,0,0,0,0,0,0,0,0,0.0093,0.0093,0.0058,0.0058,0.0057,0.0008,0.0008,0.0007,-0.0015,-0.0015,-0.0015,-0.0014,-0.0093,-0.0095,-0.0098,0,0,0,0,0,0,0,0,0,0,0,0,0,0.0064,0.0092,0.0059,0.0041,0.0039,0.0009,0.0008,0.0007,-0.0015,-0.0015,-0.0015,-0.0014,-0.0092,-0.0095,-0.0098,-0.0122,0,0,-0.0108,-0.011,0,0,0,0,0,0,0,0,0.0065,0.0062,0.0044,0.0042,0.004,0.0004,-0.0009,-0.0038,-0.0015,0.0005,-0.0015,-0.0014,-0.0064,-0.0069,-0.0079,-0.0126,-0.0129,-0.0109,-0.0111,-0.0112,-0.0113,0,0,0,0,0,0,0,0.0067,0.0064,0.0038,0.0043,0.0041,0.0021,0.0017,-0.0015,-0.003,0.0003,0.0002,-0.0003,-0.0065,-0.0076,-0.0081,-0.013,-0.0109,-0.0112,-0.0114,-0.0115,-0.0197,-0.0197,0,0,0,0,0,0,0.0076,0.0066,0.004,0.0037,0.0054,0.002,0.0016,0.0015,-0.003,-0.0036,-0.0003,-0.0004,-0.007,-0.0077,-0.0084,-0.0099,-0.0112,-0.0115,-0.0117,-0.0197,-0.0197,-0.0197,0,0,0,0,0,0,0.0077,0.0075,0.0042,0.005,0.0045,0.002,0.0018,0.0014,0.0004,-0.0034,-0.0041,-0.0008,-0.007,-0.008,-0.011,-0.0102,-0.0117,-0.012,-0.0197,-0.0197,-0.0197,-0.0138,0,0,0,0,0,0,0.0079,0.0075,0.0077,0.0051,0.0045,0.0028,0.0018,0.0012,0.0001,-0.0001,-0.0041,-0.0048,-0.0071,-0.0105,-0.0113,-0.0107,-0.0122,-0.0196,-0.0197,-0.0197,-0.014,-0.0136,-0.0133,0,0,0,0,0,0.008,0.0083,0.0078,0.0074,0.0048,0.0028,0.0023,0.0005,0.0,-0.0003,-0.003,-0.0047,-0.0113,-0.0108,-0.0117,-0.0112,-0.0196,-0.0197,-0.0197,-0.0141,-0.0137,-0.0133,0,0,0,0,0,0,0.0096,0.008,0.0074,0.0071,0.0053,0.0025,0.002,0.0007,-0.0017,-0.0017,-0.0052,-0.0061,-0.0085,-0.0111,-0.0105,-0.0139,-0.0157,-0.0159,-0.0111,-0.0107,-0.0104,-0.008,-0.0125,0,0,0,0,0,0.0102,0.0101,0.0079,0.0077,0.007,0.0045,0.0035,0.0024,-0.0,-0.001,-0.0038,-0.0069,-0.0096,-0.011,-0.0141,-0.0161,-0.0191,-0.0165,-0.0162,-0.0159,-0.0147,-0.0186,-0.0185,-0.0199,-0.0199,-0.0199,0,0,0.0107,0.0098,0.0097,0.008,0.0066,0.0066,0.004,0.0029,0.0031,-0.0016,-0.0025,-0.0061,-0.01,-0.012,-0.0133,-0.0139,-0.0174,-0.0159,-0.0156,-0.0146,-0.0187,-0.0185,-0.0184,-0.0199,-0.0199,-0.0199,0,0,0.0122,0.0111,0.0118,0.0109,0.0093,0.0079,0.0078,0.0052,0.0042,0.0023,-0.0006,-0.0034,-0.008,-0.01,-0.0117,-0.0117,-0.0158,-0.0132,-0.0092,-0.0131,-0.013,-0.0129,-0.0175,-0.0179,-0.0127,-0.0127,-0.0127,0,0.0129,0.014,0.0116,0.0122,0.0124,0.009,0.0103,0.0085,0.0053,0.0049,0.0028,-0.0033,-0.0067,-0.0083,-0.0081,-0.0107,-0.0141,-0.01,-0.0125,-0.0125,-0.0125,-0.0172,-0.0177,-0.0124,-0.0124,-0.0125,-0.0125,0,0.0152,0.0163,0.0166,0.017,0.0165,0.0168,0.0148,0.0139,0.012,0.01,0.0073,0.002,-0.0011,-0.003,-0.0055,-0.007,-0.0099,-0.0117,-0.0129,-0.012,-0.0171,-0.0177,-0.012,-0.0121,-0.0122,-0.0122,0,0,0.0166,0.0181,0.0184,0.0204,0.0194,0.0196,0.02,0.0194,0.0202,0.0155,0.0156,0.0101,0.0069,0.0047,0.0006,-0.0027,-0.0063,-0.0066,-0.0069,-0.0101,-0.0157,-0.0159,-0.0166,-0.0087,-0.0087,-0.0088,-0.0196,0,0.0195,0.0231,0.0227,0.0264,0.0284,0.0265,0.0276,0.0265,0.0241,0.0229,0.0171,0.0149,0.01,0.0084,0.0044,-0.0036,-0.0075,-0.0033,-0.017,-0.0175,-0.0168,-0.0171,-0.0089,-0.0201,-0.0202,-0.0203,-0.0204,0,0.0223,0.0248,0.0292,0.0329,0.0336,0.035,0.0367,0.037,0.0341,0.0322,0.0283,0.0233,0.0179,0.0135,0.0007,0.0034,-0.005,-0.0118,-0.0124,-0.0146,-0.0186,-0.0212,-0.0216,-0.0215,-0.0214,-0.0213,-0.0212,0,0.0256,0.0295,0.0338,0.0349,0.0377,0.0397,0.0408,0.0398,0.0411,0.0378,0.0374,0.0295,0.0254,0.0145,0.0004,0.0003,-0.0145,-0.0166,-0.025,-0.0252,-0.0244,-0.0244,-0.0252,-0.0252,-0.0251,-0.0251,-0.0251,0,0.0291,0.0326,0.0359,0.0383,0.044,0.0441,0.0486,0.0482,0.0482,0.0497,0.0424,0.0404,0.0254,0.015,0.0022,-0.0133,-0.0136,-0.024,-0.0275,-0.022,-0.0215,-0.0249,-0.0248,-0.0255,-0.0254,-0.0253,-0.0253,0,0.0316,0.0338,0.0391,0.0436,0.0457,0.0494,0.0545,0.0571,0.0563,0.0577,0.057,0.0479,0.0341,0.0182,-0.0007,-0.0107,-0.0256,-0.0311,-0.0243,-0.0273,-0.0344,-0.0338,-0.0411,-0.0412,-0.0413,-0.0413,-0.0414,0,0.0329,0.0359,0.043,0.0465,0.0488,0.0545,0.0586,0.0609,0.0634,0.0615,0.062,0.0506,0.0423,0.016,-0.0014,-0.0255,-0.0288,-0.0366,-0.0348,-0.0331,-0.0359,-0.0351,-0.0345,-0.0415,-0.0415,-0.0415,-0.0415,0,0.0351,0.0375,0.0418,0.0494,0.0548,0.0614,0.0668,0.0697,0.0714,0.0716,0.0662,0.0529,0.0371,0.0164,-0.0022,-0.0196,-0.0313,-0.0374,-0.0374,-0.0357,-0.0337,-0.0362,-0.0354,-0.0418,-0.0417,-0.0417,-0.0417,0,0.0358,0.0389,0.0442,0.0511,0.0583,0.0645,0.0683,0.0711,0.0739,0.0725,0.0701,0.0536,0.0444,0.0192,0.0018,-0.0148,-0.0191,-0.0242,-0.0249,-0.0248,-0.0167,-0.0115,-0.0153,0,0,0,0,0,0.0355,0.0385,0.0451,0.0522,0.0598,0.064,0.0718,0.0747,0.0774,0.0748,0.073,0.0586,0.0333,0.022,0.0054,-0.0013,-0.0233,-0.0214,-0.0297,-0.0431,-0.0429,-0.036,0,0,0,0,0,0,0.0346,0.0401,0.044,0.0517,0.0567,0.0647,0.0699,0.0724,0.0713,0.0717,0.0588,0.054,0.0293,0.0423,0.0046,-0.0004,-0.008,-0.0327,-0.0331,-0.0433,-0.0431,-0.0428,-0.0357,0,0,0,0,0]}]]